�������l�o���
Date,Time,MP-1(��Sv/h),MP-2(��Sv/h),MP-3(��Sv/h),MP-4(��Sv/h),MP-5(��Sv/h),MP-6(��Sv/h),MP-7(��Sv/h),MP-8(��Sv/h),����,����(m/s),���J
2022/01/02,00:00,0.578,0.872,0.551,1.069,0.742,0.349,0.611,0.580,���k��,5.1,��
2022/01/02,00:10,0.580,0.873,0.550,1.069,0.742,0.350,0.611,0.578,���k��,5.4,��
2022/01/02,00:20,0.580,0.873,0.552,1.071,0.742,0.349,0.610,0.580,���k��,7.0,��
2022/01/02,00:30,0.579,0.870,0.552,1.070,0.743,0.349,0.611,0.579,��,6.8,��
2022/01/02,00:40,0.581,0.874,0.551,1.069,0.742,0.348,0.612,0.579,��,7.3,��
2022/01/02,00:50,0.580,0.873,0.551,1.071,0.742,0.348,0.610,0.579,��,6.8,��
2022/01/02,01:00,0.577,0.871,0.551,1.069,0.742,0.349,0.610,0.580,�쐼,3.8,��
2022/01/02,01:10,0.579,0.873,0.551,1.069,0.743,0.348,0.610,0.579,��쐼,5.1,��
2022/01/02,01:20,0.579,0.872,0.551,1.071,0.744,0.349,0.610,0.578,�쐼,6.5,��
2022/01/02,01:30,0.579,0.870,0.551,1.068,0.743,0.349,0.610,0.580,���쐼,5.0,��
2022/01/02,01:40,0.578,0.871,0.552,1.068,0.742,0.349,0.609,0.578,���쐼,5.4,��
2022/01/02,01:50,0.578,0.872,0.550,1.070,0.742,0.348,0.609,0.578,���쐼,3.7,��
2022/01/02,02:00,0.578,0.872,0.551,1.069,0.743,0.349,0.610,0.578,�쐼,4.9,��
2022/01/02,02:10,0.579,0.872,0.551,1.069,0.742,0.349,0.611,0.579,���쐼,5.0,��
2022/01/02,02:20,0.578,0.872,0.548,1.071,0.741,0.349,0.610,0.580,��,5.0,��
2022/01/02,02:30,0.578,0.872,0.551,1.070,0.743,0.348,0.610,0.578,��,5.2,��
2022/01/02,02:40,0.579,0.871,0.550,1.068,0.744,0.348,0.610,0.578,���쐼,5.0,��
2022/01/02,02:50,0.578,0.870,0.549,1.068,0.742,0.348,0.609,0.579,���쐼,4.6,��
2022/01/02,03:00,0.578,0.872,0.550,1.070,0.742,0.348,0.610,0.578,���쐼,3.7,��
2022/01/02,03:10,0.577,0.870,0.550,1.070,0.741,0.349,0.609,0.578,���쐼,4.4,��
2022/01/02,03:20,0.577,0.873,0.550,1.069,0.743,0.348,0.609,0.578,���쐼,5.2,��
2022/01/02,03:30,0.579,0.872,0.551,1.070,0.741,0.348,0.608,0.578,���쐼,5.7,��
2022/01/02,03:40,0.577,0.871,0.551,1.070,0.741,0.348,0.609,0.578,��,4.7,��
2022/01/02,03:50,0.579,0.870,0.551,1.069,0.741,0.349,0.608,0.577,��,2.3,��
2022/01/02,04:00,0.577,0.872,0.551,1.067,0.742,0.347,0.610,0.578,���쐼,3.1,��
2022/01/02,04:10,0.576,0.872,0.550,1.069,0.741,0.348,0.608,0.578,���쐼,3.2,��
2022/01/02,04:20,0.578,0.872,0.549,1.069,0.742,0.348,0.610,0.578,���k��,3.4,��
2022/01/02,04:30,0.578,0.871,0.551,1.069,0.741,0.348,0.609,0.577,���k��,4.3,��
2022/01/02,04:40,0.578,0.870,0.551,1.070,0.740,0.348,0.610,0.580,���k��,3.6,��
2022/01/02,04:50,0.577,0.870,0.551,1.066,0.742,0.347,0.610,0.577,���k��,5.0,��
2022/01/02,05:00,0.578,0.871,0.551,1.069,0.742,0.350,0.609,0.579,��,6.2,��
2022/01/02,05:10,0.579,0.872,0.552,1.069,0.739,0.349,0.610,0.579,��,6.6,��
2022/01/02,05:20,0.580,0.872,0.549,1.071,0.740,0.350,0.612,0.579,��,5.5,��
2022/01/02,05:30,0.576,0.871,0.553,1.068,0.742,0.349,0.611,0.578,��,6.3,��
2022/01/02,05:40,0.577,0.870,0.550,1.070,0.741,0.350,0.612,0.579,��,6.8,��
2022/01/02,05:50,0.577,0.871,0.551,1.071,0.741,0.349,0.610,0.579,��,5.7,��
2022/01/02,06:00,0.579,0.869,0.551,1.069,0.740,0.348,0.611,0.579,��,4.4,��
2022/01/02,06:10,0.578,0.870,0.551,1.069,0.741,0.351,0.609,0.577,��,4.6,��
2022/01/02,06:20,0.579,0.869,0.553,1.068,0.742,0.349,0.609,0.579,��,5.8,��
2022/01/02,06:30,0.578,0.870,0.550,1.067,0.740,0.350,0.610,0.579,��,5.1,��
2022/01/02,06:40,0.577,0.869,0.550,1.070,0.741,0.349,0.609,0.579,��,5.2,��
2022/01/02,06:50,0.578,0.870,0.550,1.068,0.740,0.348,0.610,0.579,��,5.1,��
2022/01/02,07:00,0.578,0.871,0.550,1.069,0.739,0.348,0.611,0.577,��,5.5,��
2022/01/02,07:10,0.580,0.867,0.552,1.070,0.741,0.350,0.610,0.578,��,6.6,��
2022/01/02,07:20,0.578,0.872,0.551,1.068,0.740,0.348,0.611,0.578,��,6.6,��
2022/01/02,07:30,0.578,0.873,0.551,1.069,0.742,0.350,0.608,0.579,��,6.5,��
2022/01/02,07:40,0.577,0.872,0.550,1.068,0.740,0.350,0.611,0.579,���k��,6.8,��
2022/01/02,07:50,0.577,0.872,0.549,1.070,0.740,0.348,0.611,0.579,���k��,6.1,��
2022/01/02,08:00,0.578,0.871,0.550,1.070,0.740,0.348,0.611,0.580,��,6.2,��
2022/01/02,08:10,0.578,0.871,0.549,1.069,0.740,0.350,0.611,0.579,���k��,6.2,��
2022/01/02,08:20,0.578,0.872,0.552,1.068,0.740,0.348,0.610,0.579,���k��,6.6,��
2022/01/02,08:30,0.578,0.871,0.551,1.071,0.742,0.349,0.610,0.578,�k��,5.7,��
2022/01/02,08:40,0.579,0.873,0.552,1.071,0.741,0.349,0.611,0.579,�k��,4.0,��
2022/01/02,08:50,0.580,0.872,0.551,1.067,0.741,0.350,0.609,0.579,�k��,2.9,��
2022/01/02,09:00,0.579,0.872,0.552,1.069,0.740,0.349,0.610,0.579,��,2.2,��
2022/01/02,09:10,0.578,0.873,0.553,1.070,0.740,0.350,0.612,0.579,��,1.9,��
2022/01/02,09:20,0.582,0.873,0.553,1.069,0.740,0.349,0.610,0.579,���k��,1.5,��
2022/01/02,09:30,0.579,0.873,0.551,1.070,0.741,0.350,0.611,0.579,���쐼,2.3,��
2022/01/02,09:40,0.580,0.872,0.552,1.069,0.740,0.349,0.612,0.579,��,2.5,��
2022/01/02,09:50,0.579,0.872,0.552,1.072,0.739,0.350,0.611,0.580,��,3.7,��
2022/01/02,10:00,0.582,0.870,0.553,1.070,0.741,0.349,0.611,0.579,��,4.4,��
2022/01/02,10:10,0.580,0.873,0.552,1.069,0.740,0.350,0.610,0.578,��,4.5,��
2022/01/02,10:20,0.581,0.872,0.552,1.069,0.740,0.349,0.611,0.579,��,7.5,��
2022/01/02,10:30,0.580,0.872,0.553,1.070,0.742,0.350,0.611,0.578,��,7.4,��
2022/01/02,10:40,0.581,0.871,0.550,1.067,0.741,0.350,0.611,0.579,��,5.8,��
2022/01/02,10:50,0.580,0.871,0.551,1.069,0.742,0.351,0.609,0.580,�쐼,5.5,��
2022/01/02,11:00,0.581,0.872,0.553,1.072,0.744,0.349,0.610,0.580,��,6.0,��
2022/01/02,11:10,0.580,0.871,0.553,1.071,0.742,0.349,0.610,0.580,���쐼,4.3,��
2022/01/02,11:20,0.580,0.873,0.554,1.072,0.743,0.349,0.611,0.580,�쐼,4.4,��
2022/01/02,11:30,0.580,0.871,0.554,1.073,0.742,0.350,0.611,0.581,���쐼,5.4,��
2022/01/02,11:40,0.580,0.871,0.553,1.071,0.744,0.351,0.613,0.580,���쐼,4.5,��
2022/01/02,11:50,0.583,0.872,0.552,1.071,0.744,0.351,0.613,0.580,��,4.8,��
2022/01/02,12:00,0.583,0.872,0.553,1.073,0.745,0.351,0.613,0.581,���쐼,5.1,��
2022/01/02,12:10,0.582,0.870,0.553,1.072,0.745,0.350,0.612,0.580,�쐼,2.8,��
2022/01/02,12:20,0.583,0.872,0.554,1.073,0.744,0.351,0.615,0.582,���쐼,3.8,��
2022/01/02,12:30,0.582,0.872,0.554,1.072,0.744,0.352,0.614,0.580,�쐼,4.4,��
2022/01/02,12:40,0.582,0.872,0.554,1.073,0.744,0.350,0.613,0.582,�쐼,5.7,��
2022/01/02,12:50,0.585,0.872,0.555,1.073,0.747,0.349,0.615,0.582,�쐼,5.0,��
2022/01/02,13:00,0.583,0.873,0.553,1.073,0.745,0.351,0.612,0.582,�쐼,5.3,��
2022/01/02,13:10,0.583,0.874,0.554,1.073,0.746,0.351,0.613,0.580,�쐼,5.5,��
2022/01/02,13:20,0.584,0.872,0.556,1.073,0.745,0.351,0.613,0.580,��쐼,6.9,��
2022/01/02,13:30,0.583,0.871,0.555,1.073,0.747,0.352,0.615,0.579,��쐼,5.7,��
2022/01/02,13:40,0.581,0.873,0.556,1.073,0.746,0.352,0.614,0.579,��,3.5,��
2022/01/02,13:50,0.584,0.873,0.555,1.074,0.747,0.352,0.613,0.579,��쓌,7.8,��
2022/01/02,14:00,0.581,0.871,0.555,1.070,0.745,0.351,0.614,0.579,��쓌,8.6,��
2022/01/02,14:10,0.582,0.872,0.555,1.075,0.747,0.351,0.614,0.580,��쓌,9.7,��
2022/01/02,14:20,0.583,0.873,0.554,1.073,0.746,0.350,0.614,0.578,��,6.7,��
2022/01/02,14:30,0.584,0.873,0.555,1.074,0.744,0.351,0.614,0.579,��,7.7,��
2022/01/02,14:40,0.584,0.871,0.555,1.074,0.748,0.351,0.613,0.583,��,6.4,��
2022/01/02,14:50,0.584,0.875,0.556,1.074,0.745,0.352,0.612,0.581,��,7.5,��
2022/01/02,15:00,0.583,0.876,0.555,1.073,0.747,0.351,0.613,0.580,��쓌,6.1,��
2022/01/02,15:10,0.582,0.874,0.555,1.074,0.747,0.350,0.614,0.582,��,6.2,��
2022/01/02,15:20,0.584,0.876,0.555,1.073,0.747,0.351,0.614,0.581,��,7.1,��
2022/01/02,15:30,0.584,0.875,0.557,1.074,0.747,0.352,0.613,0.580,��,8.1,��
2022/01/02,15:40,0.584,0.877,0.555,1.075,0.747,0.351,0.613,0.581,��,8.5,��
2022/01/02,15:50,0.582,0.874,0.555,1.075,0.747,0.353,0.613,0.583,��,8.9,��
2022/01/02,16:00,0.584,0.875,0.556,1.072,0.746,0.351,0.614,0.581,��,7.0,��
2022/01/02,16:10,0.584,0.877,0.555,1.076,0.747,0.352,0.614,0.582,��,7.2,��
2022/01/02,16:20,0.583,0.876,0.554,1.073,0.746,0.352,0.612,0.580,��,7.5,��
2022/01/02,16:30,0.583,0.877,0.555,1.074,0.746,0.351,0.613,0.580,��,6.7,��
2022/01/02,16:40,0.583,0.877,0.555,1.071,0.747,0.351,0.611,0.582,��,7.1,��
2022/01/02,16:50,0.583,0.877,0.555,1.072,0.747,0.351,0.613,0.580,��,7.4,��
2022/01/02,17:00,0.583,0.878,0.554,1.072,0.745,0.352,0.613,0.581,��,7.2,��
2022/01/02,17:10,0.584,0.876,0.555,1.071,0.747,0.351,0.614,0.580,��,7.6,��
2022/01/02,17:20,0.583,0.876,0.555,1.073,0.747,0.352,0.613,0.580,��,8.9,��
2022/01/02,17:30,0.582,0.875,0.554,1.073,0.748,0.352,0.612,0.581,��,9.5,��
2022/01/02,17:40,0.583,0.876,0.556,1.072,0.747,0.352,0.613,0.581,��,8.7,��
2022/01/02,17:50,0.584,0.877,0.556,1.075,0.746,0.351,0.614,0.579,��,10.2,��
2022/01/02,18:00,0.584,0.878,0.557,1.073,0.747,0.352,0.613,0.580,��,10.2,��
2022/01/02,18:10,0.584,0.876,0.553,1.075,0.746,0.352,0.613,0.581,��쐼,8.3,��
2022/01/02,18:20,0.583,0.877,0.555,1.074,0.748,0.352,0.613,0.580,��쐼,8.0,��
2022/01/02,18:30,0.584,0.877,0.556,1.073,0.748,0.351,0.612,0.580,��,6.6,��
2022/01/02,18:40,0.584,0.877,0.555,1.072,0.747,0.352,0.612,0.582,��,3.8,��
2022/01/02,18:50,0.583,0.878,0.555,1.074,0.747,0.352,0.613,0.581,��,4.3,��
2022/01/02,19:00,0.582,0.877,0.556,1.075,0.746,0.352,0.612,0.580,��,5.3,��
2022/01/02,19:10,0.585,0.877,0.556,1.075,0.747,0.350,0.614,0.580,��쓌,4.7,��
2022/01/02,19:20,0.584,0.876,0.556,1.074,0.746,0.352,0.612,0.580,��쓌,2.9,��
2022/01/02,19:30,0.583,0.878,0.557,1.073,0.747,0.351,0.612,0.580,��쓌,2.3,��
2022/01/02,19:40,0.583,0.875,0.555,1.073,0.747,0.350,0.613,0.580,�쓌,3.4,��
2022/01/02,19:50,0.586,0.876,0.554,1.075,0.747,0.351,0.613,0.581,��쓌,4.5,��
2022/01/02,20:00,0.584,0.876,0.556,1.072,0.748,0.351,0.613,0.580,��쓌,4.4,��
2022/01/02,20:10,0.583,0.878,0.557,1.074,0.749,0.350,0.613,0.580,��쓌,4.5,��
2022/01/02,20:20,0.585,0.877,0.556,1.075,0.747,0.352,0.611,0.580,��,4.0,��
2022/01/02,20:30,0.584,0.878,0.555,1.072,0.747,0.352,0.614,0.581,��쓌,5.3,��
2022/01/02,20:40,0.585,0.878,0.555,1.074,0.748,0.351,0.613,0.579,��,4.7,��
2022/01/02,20:50,0.584,0.878,0.556,1.073,0.748,0.352,0.613,0.581,��,5.4,��
2022/01/02,21:00,0.585,0.878,0.555,1.074,0.750,0.351,0.614,0.581,��,4.6,��
2022/01/02,21:10,0.584,0.878,0.557,1.075,0.748,0.351,0.614,0.579,�쐼,2.0,��
2022/01/02,21:20,0.584,0.880,0.554,1.074,0.748,0.351,0.612,0.580,��,5.1,��
2022/01/02,21:30,0.584,0.877,0.555,1.075,0.747,0.352,0.613,0.581,��,6.9,�L
2022/01/02,21:40,0.583,0.879,0.555,1.073,0.746,0.351,0.612,0.580,���쐼,5.2,�L
2022/01/02,21:50,0.583,0.877,0.556,1.072,0.748,0.351,0.613,0.581,���쐼,7.7,�L
2022/01/02,22:00,0.583,0.877,0.555,1.074,0.747,0.351,0.614,0.580,���쐼,4.5,��
2022/01/02,22:10,0.583,0.879,0.556,1.071,0.746,0.351,0.612,0.580,���쐼,3.8,��
2022/01/02,22:20,0.582,0.876,0.555,1.075,0.747,0.353,0.613,0.578,��,2.8,�L
2022/01/02,22:30,0.583,0.877,0.555,1.073,0.747,0.353,0.614,0.580,�k��,2.3,�L
2022/01/02,22:40,0.582,0.879,0.555,1.072,0.747,0.351,0.613,0.581,���k��,5.4,�L
2022/01/02,22:50,0.583,0.877,0.554,1.075,0.749,0.351,0.615,0.580,���k��,8.2,�L
2022/01/02,23:00,0.583,0.878,0.553,1.073,0.748,0.352,0.612,0.580,��,6.9,�L
2022/01/02,23:10,0.583,0.878,0.553,1.075,0.750,0.352,0.612,0.581,��,5.3,�L
2022/01/02,23:20,0.582,0.878,0.555,1.072,0.746,0.351,0.613,0.579,���k��,4.7,��
2022/01/02,23:30,0.583,0.878,0.557,1.072,0.747,0.352,0.611,0.581,���k��,3.6,�L
2022/01/02,23:40,0.583,0.877,0.555,1.071,0.747,0.351,0.612,0.580,���쐼,1.5,��
2022/01/02,23:50,0.584,0.878,0.555,1.075,0.747,0.352,0.611,0.582,�k��,2.3,��
